Date String (YYYY-MM-DD hh:mm:ss) UTC,Instrument flags,Ambient pressure (hPa),Sample flow (lpm),Bypass flow (lpm),Sample temperature (°C),Ambient temperature (°C),ASC tube jacket temperature (°C),LED temperature (°C),Box temperature (°C),Sample RH (%),Span deviation,Mass concentration (μg/m³),Mass concentration (μg/m³),Mass concentration (μg/m³)
DateTimeUTC,F1_M11,P_M11,Q1_M11,Q2_M11,T1_M11,T2_M11,T3_M11,T4_M11,T5_M11,U1_M11,ZSPAN_M11,X2_M11,X0_M11,X1_M11
2022-06-14 18:00:00,,0821.1,4.99,0.00,29.7,28.7,00.0,38.6,31.6,19.9,0000.0,0007.64,0026.14,0003.51
2022-06-14 18:01:00,,0821.1,5.00,0.00,29.7,28.7,00.0,38.6,31.6,19.9,0000.0,0007.70,0026.30,0003.54
2022-06-14 18:02:00,,0821.2,5.01,0.00,29.7,28.8,00.0,38.6,31.6,19.8,0000.0,0007.79,0027.36,0003.56
2022-06-14 18:03:00,,0821.1,5.01,0.00,29.7,28.8,00.0,38.6,31.7,19.7,0000.0,0007.83,0026.85,0003.57
2022-06-14 18:04:00,,0821.0,4.99,0.00,29.8,28.8,00.0,38.6,31.7,19.8,0000.0,0007.97,0027.33,0003.59
2022-06-14 18:05:00,,0821.0,5.00,0.00,29.8,28.9,00.0,38.6,31.7,19.8,0000.0,0008.08,0028.26,0003.62
2022-06-14 18:06:00,,0821.0,5.00,0.00,29.8,28.9,00.0,38.6,31.7,19.7,0000.0,0008.04,0027.45,0003.63
2022-06-14 18:07:00,,0821.0,5.01,0.00,29.8,29.0,00.0,38.7,31.7,19.8,0000.0,0007.90,0025.16,0003.63
2022-06-14 18:08:00,,0821.0,4.99,0.00,29.8,29.0,00.0,38.7,31.8,19.7,0000.0,0007.88,0025.51,0003.62
2022-06-14 18:09:00,,0821.1,5.00,0.00,29.8,29.0,00.0,38.7,31.7,19.7,0000.0,0007.94,0025.49,0003.66
2022-06-14 18:10:00,,0821.0,4.99,0.00,29.9,28.8,00.0,38.7,31.7,19.7,0000.0,0007.89,0024.90,0003.67
2022-06-14 18:11:00,,0821.0,5.00,0.00,29.8,28.1,00.0,38.6,31.5,19.8,0000.0,0007.85,0024.85,0003.68
2022-06-14 18:12:00,,0820.9,5.01,0.00,29.8,27.8,00.0,38.6,31.4,19.8,0000.0,0007.95,0025.14,0003.70
2022-06-14 18:13:00,,0820.9,4.99,0.00,29.7,27.8,00.0,38.6,31.4,19.9,0000.0,0007.92,0024.35,0003.71
2022-06-14 18:14:00,,0820.9,5.00,0.00,29.7,27.8,00.0,38.6,31.4,19.9,0000.0,0007.97,0024.48,0003.74
2022-06-14 18:15:00,,0820.9,5.01,0.00,29.7,27.9,00.0,38.6,31.4,19.9,0000.0,0007.92,0024.58,0003.73
2022-06-14 18:16:00,,0820.8,5.00,0.00,29.6,28.1,00.0,38.5,31.4,20.0,0000.0,0007.78,0024.02,0003.71
2022-06-14 18:17:00,,0820.8,5.00,0.00,29.6,28.2,00.0,38.5,31.5,20.0,0000.0,0007.82,0023.83,0003.71
2022-06-14 18:18:00,,0820.8,4.99,0.00,29.6,28.3,00.0,38.5,31.5,20.1,0000.0,0007.93,0023.66,0003.72
2022-06-14 18:19:00,,0820.8,5.00,0.00,29.7,28.4,00.0,38.5,31.5,20.2,0000.0,0007.91,0022.64,0003.73
2022-06-14 18:20:00,,0820.8,5.01,0.00,29.7,28.5,00.0,38.5,31.5,20.2,0000.0,0007.89,0022.04,0003.72
2022-06-14 18:21:00,,0820.9,4.99,0.00,29.7,28.6,00.0,38.6,31.6,20.3,0000.0,0007.91,0021.98,0003.73
2022-06-14 18:22:00,,0820.9,5.01,0.00,29.7,28.6,00.0,38.6,31.6,20.2,0000.0,0007.85,0021.93,0003.71
2022-06-14 18:23:00,,0820.8,5.00,0.00,29.7,28.7,00.0,38.6,31.6,20.3,0000.0,0007.70,0021.89,0003.68
2022-06-14 18:24:00,,0820.8,4.98,0.00,29.7,28.8,00.0,38.6,31.7,20.3,0000.0,0007.60,0021.53,0003.68
2022-06-14 18:25:00,,0820.8,5.00,0.00,29.8,28.8,00.0,38.6,31.7,20.1,0000.0,0007.48,0021.06,0003.65
2022-06-14 18:26:00,,0820.8,5.01,0.00,29.8,28.9,00.0,38.6,31.7,20.0,0000.0,0007.42,0020.88,0003.67
2022-06-14 18:27:00,,0820.8,4.99,0.00,29.8,28.9,00.0,38.6,31.7,19.8,0000.0,0007.46,0020.78,0003.69
2022-06-14 18:28:00,,0820.8,5.00,0.00,29.8,28.9,00.0,38.6,31.8,19.5,0000.0,0007.48,0020.57,0003.70
2022-06-14 18:29:00,,0820.8,5.00,0.00,29.8,29.0,00.0,38.6,31.7,19.4,0000.0,0007.45,0020.34,0003.71
2022-06-14 18:30:00,,0820.7,5.01,0.00,29.9,29.0,00.0,38.7,31.8,19.5,0000.0,0007.39,0019.94,0003.71
2022-06-14 18:31:00,,0820.7,5.01,0.00,29.9,28.7,00.0,38.6,31.7,19.7,0000.0,0007.42,0020.09,0003.72
2022-06-14 18:32:00,,0820.8,4.99,0.00,29.8,27.8,00.0,38.6,31.4,19.7,0000.0,0007.51,0020.27,0003.72
2022-06-14 18:33:00,,0820.9,5.01,0.00,29.7,27.3,00.0,38.5,31.3,19.9,0000.0,0007.53,0020.27,0003.74
2022-06-14 18:34:00,,0820.9,5.00,0.00,29.6,27.2,00.0,38.5,31.3,19.9,0000.0,0007.51,0019.66,0003.75
2022-06-14 18:35:00,,0820.8,5.00,0.00,29.6,27.3,00.0,38.5,31.2,20.0,0000.0,0007.53,0019.48,0003.75
2022-06-14 18:36:00,,0820.7,4.99,0.00,29.5,27.5,00.0,38.5,31.2,20.0,0000.0,0007.58,0019.80,0003.74
2022-06-14 18:37:00,,0820.6,5.00,0.00,29.5,27.6,00.0,38.4,31.3,20.1,0000.0,0007.65,0020.22,0003.73
2022-06-14 18:38:00,,0820.6,5.00,0.00,29.5,27.8,00.0,38.4,31.3,20.2,0000.0,0007.64,0020.10,0003.73
2022-06-14 18:39:00,,0820.6,4.99,0.00,29.5,28.0,00.0,38.4,31.3,20.3,0000.0,0007.65,0020.26,0003.72
2022-06-14 18:40:00,,0820.7,4.99,0.00,29.5,28.1,00.0,38.4,31.4,20.3,0000.0,0007.62,0020.21,0003.71
2022-06-14 18:41:00,,0820.8,5.03,0.00,29.5,28.2,00.0,38.4,31.4,20.3,0000.0,0007.61,0020.09,0003.69
2022-06-14 18:42:00,,0820.7,5.00,0.00,29.5,28.3,00.0,38.4,31.4,20.4,0000.0,0007.61,0020.70,0003.67
2022-06-14 18:43:00,,0820.8,5.01,0.00,29.6,28.4,00.0,38.4,31.5,20.5,0000.0,0007.47,0020.93,0003.64
2022-06-14 18:44:00,,0820.8,4.99,0.00,29.6,28.5,00.0,38.4,31.5,20.4,0000.0,0007.47,0022.08,0003.61
2022-06-14 18:45:00,,0820.8,5.00,0.00,29.6,28.6,00.0,38.4,31.5,20.4,0000.0,0007.54,0022.84,0003.61
2022-06-14 18:46:00,,0820.8,5.01,0.00,29.6,28.6,00.0,38.5,31.6,20.4,0000.0,0007.62,0024.00,0003.61
2022-06-14 18:47:00,,0820.9,5.00,0.00,29.6,28.7,00.0,38.5,31.6,20.5,0000.0,0007.58,0024.10,0003.61
2022-06-14 18:48:00,,0820.9,5.00,0.00,29.7,28.8,00.0,38.5,31.6,20.4,0000.0,0007.52,0023.40,0003.60
2022-06-14 18:49:00,,0820.9,5.00,0.00,29.7,28.8,00.0,38.5,31.7,20.3,0000.0,0007.45,0023.09,0003.57
2022-06-14 18:50:00,,0820.9,5.01,0.00,29.7,28.9,00.0,38.5,31.7,20.2,0000.0,0007.35,0022.84,0003.54
2022-06-14 18:51:00,,0820.8,5.00,0.00,29.7,28.9,00.0,38.5,31.7,20.1,0000.0,0007.34,0023.65,0003.52
2022-06-14 18:52:00,,0820.7,4.99,0.00,29.8,29.0,00.0,38.6,31.7,19.8,0000.0,0007.27,0023.53,0003.51
2022-06-14 18:53:00,,0820.7,4.99,0.00,29.8,29.0,00.0,38.6,31.8,19.7,0000.0,0007.19,0022.60,0003.49
2022-06-14 18:54:00,,0820.7,5.01,0.00,29.8,29.0,00.0,38.6,31.7,19.8,0000.0,0007.21,0022.03,0003.49
2022-06-14 18:55:00,,0820.6,5.01,0.00,29.8,28.7,00.0,38.6,31.7,19.5,0000.0,0007.22,0021.05,0003.49
2022-06-14 18:56:00,,0820.5,5.00,0.00,29.8,28.0,00.0,38.5,31.5,19.6,0000.0,0007.21,0020.76,0003.49
2022-06-14 18:57:00,,0820.4,4.99,0.00,29.7,27.8,00.0,38.5,31.4,19.8,0000.0,0007.16,0019.54,0003.48
2022-06-14 18:58:00,,0820.4,5.00,0.00,29.7,27.8,00.0,38.5,31.4,19.9,0000.0,0007.15,0019.35,0003.47
2022-06-14 18:59:00,,0820.6,5.00,0.00,29.6,27.9,00.0,38.5,31.4,20.0,0000.0,0007.13,0019.41,0003.46
